Weather History for Bluefield, WV

Change the Weather History Date:

Saturday, February 16, 2013

  Actual Average Record
Temperature  
Mean Temperature 25 °F 38 °F  
Max Temperature 30 °F 46 °F 64 °F (1976)
Min Temperature 19 °F 29 °F -2 °F (1991)
Degree Days  
Heating Degree Days 40 27  
Month to date heating degree days 467 461  
Since 1 July heating degree days 3043 3181  
Cooling Degree Days 0 0  
Month to date cooling degree days 0 0  
Year to date cooling degree days 1 0  
Moisture  
Dew Point 18 °F    
Average Humidity 73    
Maximum Humidity 84    
Minimum Humidity 62    
Precipitation  
Precipitation 0.12 in 0.10 in 0.88 in (1987)
Month to date precipitation 0.94 1.54  
Year to date precipitation 6.94 4.44  
Snow  
Snow 1.80 in - - ()
Month to date snowfall 9.7  
Since 1 July snowfall 38.2  
Snow Depth 4.00 in    
Sea Level Pressure  
Sea Level Pressure 29.90 in    
Wind  
Wind Speed 8 mph (NW)    
Max Wind Speed 20 mph    
Max Gust Speed 28 mph    
Visibility 7 miles    
Events Snow    
T = Trace of Precipitation, MM = Missing Value Source: NWS Daily Summary

Daily Weather History Graph

Daily Weather History Graph

Search for Another Location

Airport:

Trip Planner

Search our weather history database for the weather conditions in past years. The results will help you decide how hot, cold, wet, or windy it might be!

Date:

Astronomy

Feb. 16, 2013 Rise Set
Actual Time 7:12 AM EST 6:05 PM EST
Civil Twilight 6:45 AM EST 6:32 PM EST
Nautical Twilight 6:15 AM EST 7:03 PM EST
Astronomical Twilight 5:45 AM EST 7:33 PM EST
Moon 10:33 AM EST (2/16) No Moon Set
Length of Visible Light 11h 46m
Length of Day
10h 53m
Waxing Crescent, 39% of the Moon is Illuminated
Feb 16
Waxing Crescent
Feb 17
First Quarter
Feb 25
Full
Mar 4
Last Quarter
Mar 11
New

Hourly Weather History & Observations

Time (EST) Temp. Windchill Dew Point Humidity Pressure Visibility Wind Dir Wind Speed Gust Speed Precip Events Conditions
12:18 AM 30.2 °F 25.4 °F 26.6 °F 86% 29.97 in 10.0 mi West 4.6 mph - N/A   Overcast
12:43 AM 30.2 °F 22.6 °F 24.8 °F 80% 29.97 in 10.0 mi WNW 8.1 mph - N/A   Overcast
12:52 AM 30.0 °F 23.2 °F 25.0 °F 82% 29.98 in 10.0 mi WNW 6.9 mph - N/A   Mostly Cloudy
1:02 AM 30.2 °F 25.4 °F 24.8 °F 80% 29.96 in 10.0 mi WNW 4.6 mph - N/A   Overcast
1:12 AM 30.2 °F 24.3 °F 26.6 °F 86% 29.95 in 10.0 mi WNW 5.8 mph - N/A   Overcast
1:23 AM 30.2 °F 24.3 °F 24.8 °F 80% 29.95 in 10.0 mi NW 5.8 mph - N/A   Overcast
1:52 AM 30.0 °F 24.1 °F 25.0 °F 82% 29.96 in 10.0 mi NW 5.8 mph - N/A   Overcast
2:34 AM 28.4 °F 21.2 °F 24.8 °F 86% 29.93 in 10.0 mi NW 6.9 mph - N/A   Mostly Cloudy
2:48 AM 28.4 °F 21.2 °F 23.0 °F 80% 29.93 in 10.0 mi WNW 6.9 mph - N/A   Mostly Cloudy
2:52 AM 28.9 °F 21.1 °F 23.0 °F 78% 29.95 in 10.0 mi WNW 8.1 mph - N/A   Overcast
3:44 AM 28.4 °F 23.3 °F 24.8 °F 86% 29.91 in 9.0 mi NNW 4.6 mph - 0.00 in Snow Light Snow
3:50 AM 28.4 °F 21.2 °F 24.8 °F 86% 29.91 in 9.0 mi NNW 6.9 mph - 0.00 in Snow Light Snow
4:14 AM 28.4 °F 20.4 °F 21.2 °F 74% 29.91 in 10.0 mi NNW 8.1 mph - N/A   Overcast
4:30 AM 28.4 °F 23.3 °F 23.0 °F 80% 29.91 in 10.0 mi NNW 4.6 mph - 0.00 in Snow Light Snow
4:52 AM 28.0 °F 22.8 °F 21.9 °F 78% 29.96 in 10.0 mi Variable 4.6 mph - 0.00 in   Overcast
5:52 AM 27.0 °F 23.0 °F 21.0 °F 78% 29.96 in 10.0 mi NW 3.5 mph - 0.00 in   Overcast
6:12 AM 26.6 °F 22.6 °F 21.2 °F 80% 29.90 in 10.0 mi NNW 3.5 mph - N/A   Overcast
6:21 AM 26.6 °F 21.2 °F 21.2 °F 80% 29.90 in 10.0 mi NW 4.6 mph - N/A   Mostly Cloudy
6:52 AM 26.1 °F 20.5 °F 19.9 °F 78% 29.96 in 10.0 mi WNW 4.6 mph - N/A   Overcast
7:52 AM 26.1 °F 20.5 °F 21.0 °F 81% 29.95 in 10.0 mi WNW 4.6 mph - N/A   Overcast
8:52 AM 27.0 °F 19.5 °F 19.9 °F 75% 29.95 in 7.0 mi NW 6.9 mph - 0.00 in Snow Light Snow
9:42 AM 26.6 °F 19.1 °F 19.4 °F 74% 29.88 in 8.0 mi NNW 6.9 mph - 0.00 in Snow Light Snow
9:52 AM 27.0 °F 21.6 °F 19.9 °F 75% 29.94 in 9.0 mi Variable 4.6 mph - 0.00 in Snow Light Snow
10:07 AM 26.6 °F 19.1 °F 17.6 °F 69% 29.88 in 3.0 mi NNW 6.9 mph 16.1 mph 0.00 in Snow Light Snow
10:26 AM 26.6 °F 20.0 °F 17.6 °F 69% 29.88 in 9.0 mi NW 5.8 mph - 0.00 in   Overcast
10:52 AM 28.0 °F 20.0 °F 18.0 °F 66% 29.94 in 10.0 mi WNW 8.1 mph - 0.00 in   Mostly Cloudy
11:21 AM 26.6 °F 17.5 °F 15.8 °F 64% 29.87 in 10.0 mi NW 9.2 mph - N/A   Overcast
11:28 AM 26.6 °F 16.8 °F 15.8 °F 64% 29.87 in 10.0 mi WNW 10.4 mph - N/A   Overcast
11:52 AM 27.0 °F 19.5 °F 19.0 °F 72% 29.92 in 7.0 mi NNW 6.9 mph - 0.00 in Snow Light Snow
12:13 PM 26.6 °F 20.0 °F 19.4 °F 74% 29.86 in 2.5 mi NW 5.8 mph - 0.00 in Snow Light Snow
12:31 PM 26.6 °F 19.1 °F 19.4 °F 74% 29.85 in 1.8 mi NW 6.9 mph - 0.00 in Snow Light Snow
12:52 PM 26.1 °F 20.5 °F 19.9 °F 78% 29.92 in 1.2 mi NNW 4.6 mph - 0.00 in Snow Light Snow
1:03 PM 26.6 °F - 19.4 °F 74% 29.85 in 2.0 mi Calm Calm - 0.00 in Snow Light Snow
1:14 PM 26.6 °F 20.0 °F 19.4 °F 74% 29.84 in 3.0 mi Variable 5.8 mph - 0.00 in Snow Light Snow
1:22 PM 26.6 °F 16.8 °F 17.6 °F 69% 29.84 in 9.0 mi WNW 10.4 mph - 0.00 in   Overcast
1:52 PM 26.1 °F 20.5 °F 18.0 °F 71% 29.90 in 6.0 mi Variable 4.6 mph - 0.00 in Snow Light Snow
2:33 PM 26.6 °F 16.8 °F 14.0 °F 59% 29.84 in 9.0 mi NNW 10.4 mph - 0.00 in   Overcast
2:52 PM 26.1 °F 17.6 °F 16.0 °F 66% 29.90 in 9.0 mi North 8.1 mph - 0.00 in Snow Light Snow
3:24 PM 26.6 °F 20.0 °F 14.0 °F 59% 29.83 in 8.0 mi NW 5.8 mph - 0.00 in Snow Light Snow
3:52 PM 25.0 °F 14.8 °F 14.0 °F 63% 29.90 in 7.0 mi NW 10.4 mph 18.4 mph 0.00 in Snow Light Snow
4:52 PM 25.0 °F 13.6 °F 10.0 °F 53% 29.91 in 10.0 mi NW 12.7 mph 18.4 mph 0.00 in   Mostly Cloudy
5:20 PM 24.8 °F 14.6 °F 12.2 °F 59% 29.84 in 10.0 mi WNW 10.4 mph 19.6 mph N/A   Mostly Cloudy
5:29 PM 24.8 °F 14.6 °F 12.2 °F 59% 29.84 in 10.0 mi NW 10.4 mph - N/A   Mostly Cloudy
5:44 PM 24.8 °F 17.9 °F 14.0 °F 64% 29.85 in 3.0 mi NNW 5.8 mph - 0.00 in Snow Light Snow
5:52 PM 23.0 °F 13.1 °F 14.0 °F 68% 29.92 in 9.0 mi NW 9.2 mph - 0.00 in   Mostly Cloudy
6:10 PM 23.0 °F 13.1 °F 15.8 °F 74% 29.85 in 1.8 mi NNW 9.2 mph - 0.00 in Snow Light Snow
6:26 PM 21.2 °F 11.7 °F 15.8 °F 80% 29.85 in 3.0 mi NW 8.1 mph - 0.00 in Snow Light Snow
6:36 PM 21.2 °F 11.7 °F 14.0 °F 74% 29.85 in 10.0 mi NW 8.1 mph - 0.00 in   Scattered Clouds
6:52 PM 21.9 °F 11.0 °F 12.0 °F 66% 29.93 in 10.0 mi NW 10.4 mph - 0.00 in   Partly Cloudy
7:52 PM 21.0 °F 11.4 °F 12.0 °F 68% 29.94 in 10.0 mi WNW 8.1 mph - N/A   Scattered Clouds
8:52 PM 21.0 °F 11.4 °F 12.9 °F 71% 29.94 in 10.0 mi WNW 8.1 mph - N/A   Overcast
9:10 PM 21.2 °F 10.9 °F 12.2 °F 68% 29.86 in 5.0 mi WNW 9.2 mph - 0.00 in Snow Light Snow
9:16 PM 21.2 °F 11.7 °F 14.0 °F 74% 29.86 in 1.8 mi WNW 8.1 mph - 0.00 in Snow Light Snow
9:33 PM 21.2 °F 8.3 °F 15.8 °F 80% 29.87 in 3.0 mi WNW 13.8 mph 23.0 mph 0.00 in Snow Light Snow
9:52 PM 21.0 °F 6.6 °F 12.9 °F 71% 29.95 in 6.0 mi NW 17.3 mph 26.5 mph 0.00 in Snow Light Snow
10:04 PM 21.2 °F 10.1 °F 14.0 °F 74% 29.87 in 1.8 mi NW 10.4 mph 21.9 mph 0.00 in Snow Light Snow
10:08 PM 21.2 °F 11.7 °F 15.8 °F 80% 29.87 in 0.8 mi WNW 8.1 mph 21.9 mph 0.00 in Snow Light Snow
10:23 PM 19.4 °F 7.9 °F 15.8 °F 86% 29.86 in 1.0 mi NW 10.4 mph 21.9 mph 0.01 in Snow Light Snow
10:31 PM 19.4 °F 8.6 °F 15.8 °F 86% 29.86 in 0.5 mi NW 9.2 mph 19.6 mph 0.02 in Snow Snow
10:43 PM 19.4 °F 6.0 °F 15.8 °F 86% 29.87 in 1.2 mi WNW 13.8 mph 19.6 mph 0.02 in Snow Light Snow
10:48 PM 19.4 °F 6.6 °F 15.8 °F 86% 29.87 in 0.8 mi WNW 12.7 mph 19.6 mph 0.02 in Snow Light Snow
10:52 PM 19.9 °F 4.8 °F 15.1 °F 81% 29.95 in 0.5 mi WNW 18.4 mph 27.6 mph 0.03 in Snow Snow
11:00 PM 19.4 °F 6.6 °F 12.2 °F 74% 29.86 in 0.8 mi WNW 12.7 mph 27.6 mph 0.00 in Snow Light Snow
11:03 PM 19.4 °F 7.9 °F 12.2 °F 74% 29.86 in 1.5 mi WNW 10.4 mph 24.2 mph 0.00 in Snow Light Snow
11:05 PM 19.4 °F 7.2 °F 12.2 °F 74% 29.86 in 3.0 mi WNW 11.5 mph 24.2 mph 0.00 in Snow Light Snow
11:42 PM 19.4 °F 6.6 °F 12.2 °F 74% 29.86 in 9.0 mi WNW 12.7 mph 19.6 mph 0.00 in Snow Light Snow
11:52 PM 19.0 °F 8.2 °F 12.0 °F 74% 29.94 in 9.0 mi NW 9.2 mph 18.4 mph 0.00 in   Scattered Clouds